Location: Étouvelles
(49.5207°N, 3.5808°E)
Time: 11:49:27
(UTC+00:00)

Lacrosse 4 Rocket - Visible Passes

Search period start: 28 September 2023 00:00
Search period end: 08 October 2023 00:00
Orbit: 530 x 606 km, 68.0° (Epoch: 27 September)

Date Brightness Start Highest point End Pass type
(mag) Time Alt. Az. Time Alt. Az. Time Alt. Az.
28 Sep 3.2 02:26:17 29° NNE 02:26:17 29° NNE 02:28:29 10° NNE visible
28 Sep 3.5 04:02:22 14° NW 04:03:30 15° NNW 04:06:02 10° N visible
29 Sep 3.4 02:27:30 25° NNE 02:27:30 25° NNE 02:29:32 10° NNE visible
29 Sep 3.7 04:03:34 11° NW 04:04:51 13° NNW 04:06:47 10° N visible
30 Sep 3.6 02:28:40 22° N 02:28:40 22° N 02:30:31 10° NNE visible
30 Sep 3.9 04:05:09 10° NW 04:06:13 11° NNW 04:07:16 10° N visible
01 Oct 3.7 02:29:49 19° N 02:29:49 19° N 02:31:28 10° NNE visible
02 Oct 3.9 02:30:56 17° N 02:30:56 17° N 02:32:23 10° NNE visible
03 Oct 4.0 02:32:02 15° N 02:32:02 15° N 02:33:14 10° N visible
04 Oct 4.1 02:33:06 13° N 02:33:06 13° N 02:34:03 10° N visible
05 Oct 4.2 02:34:09 11° N 02:34:09 11° N 02:34:46 10° N visible
06 Oct 4.3 02:35:12 10° N 02:35:12 10° N 02:35:18 10° N visible
